M I D A S
Marine Information and Data Acquisition System
Tripno 747 of the Zeeleeuw from 2004-07-13 06:12:42 to 2004-07-13 17:27:28
Back to CruiseResearch ActivitiesStationsMapUnderway DataData graphs

EquipmentUnitsComment
TimeDGPSUTC
LatitudeDGPSDM.mWGS84
LongitudeDGPSDM.mWGS84
TemperatureSBE03/SBE38deg celciusITS90
ConductivitySBE21S/mITS90
SalinitySBE21 Practical Salinity Units
ChlorophylAChelsea fluorimeterg/lCalibrated in Aceton
Missing or incorrect values are displayed as -999
Sea surface data collected by the RV Zeeleeuw from 2004-07-13 06:12:42 to 2004-07-13 17:27:28
Time Latitude Longitude Temperature Conductivity Salinity ChlorophylA
2004-07-13 06:13:48 51°13.597 2°56.096 20.206947 0.03147 0.174632 -0.005933
2004-07-13 06:14:48 51°13.597 2°56.096 20.20255 0.03147 0.174635 -0.005933
2004-07-13 06:15:47 51°13.597 2°56.096 20.206705 0.03147 0.174635 -0.005933
2004-07-13 06:16:48 51°13.597 2°56.096 20.199443 0.03147 0.174641 -0.005933
2004-07-13 06:17:48 51°13.597 2°56.097 20.205737 0.03147 0.174644 -0.005933
2004-07-13 06:18:46 51°13.599 2°56.083 20.191372 0.03147 0.174646 -0.039642
2004-07-13 06:19:48 51°13.626 2°55.995 20.260063 0.031366 0.174069 -0.005933
2004-07-13 06:20:48 51°13.654 2°55.884 20.228973 0.031366 0.174069 -0.039642
2004-07-13 06:21:48 51°13.658 2°55.775 20.340528 0.031366 0.174072 -0.039642
2004-07-13 06:22:48 51°13.717 2°55.77 20.36388 0.031366 0.174067 -0.005933
2004-07-13 06:23:48 51°13.808 2°55.651 20.181969 0.031366 0.174056 -0.005933
2004-07-13 06:24:48 51°13.919 2°55.56 20.225423 0.031366 0.174067 -0.039642
2004-07-13 06:25:48 51°14.04 2°55.486 20.249096 0.031366 0.174072 -0.005933
2004-07-13 06:26:48 51°14.172 2°55.401 20.268932 0.031366 0.174072 -0.039642
2004-07-13 06:27:46 51°14.289 2°55.22 20.200129 0.031366 0.174069 -0.039642
2004-07-13 06:28:48 51°14.41 2°54.961 20.205132 0.031366 0.174072 -0.039642
2004-07-13 06:29:48 51°14.576 2°54.743 20.188547 0.031366 0.174081 -0.039642
2004-07-13 06:30:48 51°14.751 2°54.539 20.209086 0.031366 0.174086 -0.073352
2004-07-13 06:31:48 51°14.927 2°54.339 20.216993 0.031366 0.174092 -0.073352
2004-07-13 06:32:48 51°15.102 2°54.138 20.258128 0.031366 0.174095 -0.073352
2004-07-13 06:33:48 51°15.276 2°53.931 20.228166 0.031366 0.1741 -0.073352
2004-07-13 06:34:48 51°15.45 2°53.719 20.2274 0.031366 0.174106 -0.073352
2004-07-13 06:35:47 51°15.635 2°53.555 20.253975 0.031366 0.174108 -0.039642
2004-07-13 06:36:48 51°15.828 2°53.387 20.242322 0.031366 0.174111 -0.039642
2004-07-13 06:37:45 51°16.01 2°53.229 20.252443 0.031366 0.174111 -0.073352
2004-07-13 06:38:46 51°16.205 2°53.06 20.247121 0.031366 0.174117 -0.073352
2004-07-13 06:39:48 51°16.408 2°52.911 20.260507 0.031366 0.174122 -0.073352
2004-07-13 06:40:47 51°16.598 2°52.778 20.259579 0.031366 0.174131 -0.073352
2004-07-13 06:41:46 51°16.791 2°52.649 20.277719 0.031366 0.174131 -0.073352
2004-07-13 06:42:48 51°16.99 2°52.526 20.290656 0.031366 0.174139 -0.073352
2004-07-13 06:43:47 51°17.189 2°52.473 20.292993 0.031366 0.174131 -0.107061
2004-07-13 06:44:48 51°17.399 2°52.45 20.299239 0.031366 0.174139 -0.073352
2004-07-13 06:45:48 51°17.607 2°52.432 20.306371 0.031366 0.174136 -0.107061
2004-07-13 06:46:48 51°17.817 2°52.433 20.328526 0.031366 0.174142 -0.107061
2004-07-13 06:47:48 51°18.023 2°52.439 20.319463 0.031262 0.173559 -0.107061
2004-07-13 06:48:48 51°18.217 2°52.553 20.331023 0.031262 0.173548 -0.107061
2004-07-13 06:49:48 51°18.41 2°52.687 20.334124 0.031262 0.173554 -0.14077
2004-07-13 06:50:48 51°18.607 2°52.82 20.344756 0.031262 0.173565 -0.107061
2004-07-13 06:51:45 51°18.795 2°52.946 20.359049 0.031262 0.173568 -0.14077
2004-07-13 06:52:48 51°19.002 2°53.081 20.370603 0.031262 0.173573 -0.14077
2004-07-13 06:53:48 51°19.198 2°53.207 20.372696 0.031262 0.173576 -0.107061
2004-07-13 06:54:48 51°19.393 2°53.332 20.389318 0.031262 0.173593 -0.14077
2004-07-13 06:55:47 51°19.585 2°53.456 20.400222 0.031262 0.173576 -0.107061
2004-07-13 06:56:48 51°19.781 2°53.598 20.407867 0.031262 0.173562 -0.17448
2004-07-13 06:57:48 51°19.975 2°53.736 20.41724 0.031262 0.173556 -0.17448
2004-07-13 06:58:48 51°20.169 2°53.876 20.428985 0.031262 0.173554 -0.17448
2004-07-13 06:59:47 51°20.362 2°54.011 20.435822 0.031262 0.173548 -0.208189
2004-07-13 07:00:48 51°20.554 2°54.149 20.442739 0.031262 0.173545 -0.17448
2004-07-13 07:01:48 51°20.749 2°54.289 20.457655 0.031262 0.173551 -0.17448
2004-07-13 07:02:48 51°20.941 2°54.427 20.463565 0.031262 0.173559 -0.17448
2004-07-13 07:03:48 51°21.134 2°54.567 20.478156 0.031262 0.173573 -0.17448
2004-07-13 07:04:48 51°21.327 2°54.709 20.48318 0.031262 0.173579 -0.208189
2004-07-13 07:05:48 51°21.519 2°54.86 20.49419 0.031262 0.173587 -0.208189
2004-07-13 07:06:48 51°21.712 2°55.018 20.505722 0.031262 0.173601 -0.17448
2004-07-13 07:07:52 51°21.919 2°55.181 20.517171 0.031262 0.173612 -0.208189
2004-07-13 07:08:52 51°22.115 2°55.325 20.527534 0.031262 0.17362 -0.17448
2004-07-13 07:09:52 51°22.31 2°55.47 20.536088 0.031262 0.173634 -0.241899
2004-07-13 07:10:52 51°22.506 2°55.617 20.542834 0.031262 0.173637 -0.241899
2004-07-13 07:11:52 51°22.702 2°55.764 20.553033 0.031262 0.173651 -0.17448
2004-07-13 07:12:52 51°22.897 2°55.91 20.569171 0.031262 0.173656 -0.208189
2004-07-13 07:13:52 51°23.092 2°56.06 20.572221 0.031262 0.173665 -0.17448
2004-07-13 07:14:52 51°23.288 2°56.21 20.589799 0.031262 0.173668 -0.275608
2004-07-13 07:15:52 51°23.485 2°56.354 20.594775 0.031262 0.173679 -0.241899
2004-07-13 07:16:52 51°23.683 2°56.492 20.606852 0.031158 0.173098 -0.241899
2004-07-13 07:17:52 51°23.881 2°56.631 20.619488 0.031262 0.173684 -0.241899
2004-07-13 07:18:52 51°24.075 2°56.767 20.621012 0.031158 0.173107 -0.241899
2004-07-13 07:19:52 51°24.27 2°56.904 20.629314 0.031158 0.173112 -0.275608
2004-07-13 07:20:52 51°24.462 2°57.042 20.641826 0.031158 0.173107 -0.241899
2004-07-13 07:21:55 51°24.663 2°57.186 20.65638 0.031158 0.17311 -0.241899
2004-07-13 07:22:56 51°24.861 2°57.322 20.668807 0.031158 0.173121 -0.309317
2004-07-13 07:23:56 51°25.06 2°57.458 20.669649 0.031158 0.173115 -0.241899
2004-07-13 07:24:56 51°25.254 2°57.594 20.689527 0.031158 0.173129 -0.208189
2004-07-13 07:25:56 51°25.452 2°57.73 20.693934 0.031158 0.173121 -0.309317
2004-07-13 07:26:56 51°25.65 2°57.868 20.702829 0.031158 0.173118 -0.275608
2004-07-13 07:27:55 51°25.846 2°58.005 20.720495 0.031158 0.173123 -0.275608
2004-07-13 07:28:57 51°26.052 2°58.149 20.723339 0.031158 0.173126 -0.309317
2004-07-13 07:29:55 51°26.241 2°58.282 20.735313 0.031158 0.173132 -0.275608
2004-07-13 07:30:57 51°26.438 2°58.422 20.745284 0.031158 0.17314 -0.309317
2004-07-13 07:31:55 51°26.625 2°58.555 20.754452 0.031158 0.173137 -0.309317
2004-07-13 07:33:02 51°26.843 2°58.709 20.767062 0.031158 0.173143 -0.343027
2004-07-13 07:34:02 51°27.038 2°58.849 20.776068 0.031158 0.173143 -0.343027
2004-07-13 07:35:02 51°27.232 2°58.986 20.795556 0.031158 0.173143 -0.309317
2004-07-13 07:36:02 51°27.425 2°59.121 20.801797 0.031158 0.173151 -0.343027
2004-07-13 07:37:04 51°27.625 2°59.264 20.812399 0.031158 0.173154 -0.309317
2004-07-13 07:38:05 51°27.818 2°59.423 20.818359 0.031158 0.173137 -0.309317
2004-07-13 07:39:05 51°27.955 2°59.682 20.830677 0.031158 0.173146 -0.343027
2004-07-13 07:40:05 51°28.091 2°59.954 20.847991 0.031158 0.173162 -0.343027
2004-07-13 07:41:04 51°28.229 3°0.212 20.855867 0.031158 0.173151 -0.343027
2004-07-13 07:42:03 51°28.369 3°0.472 20.868619 0.031158 0.173159 -0.343027
2004-07-13 07:43:05 51°28.519 3°0.744 20.873655 0.031158 0.173159 -0.309317
2004-07-13 07:44:04 51°28.659 3°0.998 20.882247 0.031158 0.173171 -0.309317
2004-07-13 07:45:05 51°28.807 3°1.26 20.890359 0.031158 0.173162 -0.376736
2004-07-13 07:46:05 51°28.95 3°1.517 20.900947 0.031158 0.173157 -0.376736
2004-07-13 07:47:05 51°29.096 3°1.776 20.912492 0.031158 0.173162 -0.376736
2004-07-13 07:48:05 51°29.244 3°2.032 20.919202 0.031158 0.173171 -0.376736
2004-07-13 07:49:05 51°29.388 3°2.293 20.932622 0.031158 0.173173 -0.343027
2004-07-13 07:50:04 51°29.532 3°2.55 20.940448 0.031158 0.173168 -0.376736
2004-07-13 07:51:06 51°29.685 3°2.819 20.952945 0.031158 0.173176 -0.376736
2004-07-13 07:52:06 51°29.825 3°3.086 20.959971 0.031158 0.173182 -0.376736
2004-07-13 07:53:06 51°29.964 3°3.362 20.973462 0.031054 0.172596 -0.376736
2004-07-13 07:54:06 51°30.104 3°3.639 20.969511 0.031054 0.17259 -0.376736
2004-07-13 07:55:06 51°30.243 3°3.913 20.993774 0.031054 0.172593 -0.410446
2004-07-13 07:56:06 51°30.384 3°4.185 20.992816 0.031054 0.172582 -0.376736
2004-07-13 07:57:06 51°30.525 3°4.459 20.999958 0.031158 0.173162 -0.410446
2004-07-13 07:58:05 51°30.659 3°4.724 21.014479 0.031054 0.17259 -0.410446
2004-07-13 07:59:06 51°30.804 3°4.998 21.018906 0.031054 0.172576 -0.376736
2004-07-13 08:00:06 51°30.944 3°5.27 21.031349 0.031054 0.172576 -0.376736
2004-07-13 08:01:05 51°31.082 3°5.539 21.042713 0.031054 0.172571 -0.410446
2004-07-13 08:02:06 51°31.224 3°5.816 21.046621 0.031054 0.172562 -0.376736
2004-07-13 08:03:04 51°31.359 3°6.08 21.060056 0.031054 0.172549 -0.410446
2004-07-13 08:04:06 51°31.503 3°6.363 21.073607 0.031054 0.172554 -0.444155
2004-07-13 08:05:06 51°31.645 3°6.639 21.079904 0.031054 0.172554 -0.410446
2004-07-13 08:06:06 51°31.786 3°6.914 21.087276 0.031054 0.172538 -0.410446
2004-07-13 08:07:06 51°31.929 3°7.188 21.09393 0.031054 0.172532 -0.410446
2004-07-13 08:08:06 51°32.072 3°7.462 21.112455 0.031054 0.172532 -0.444155
2004-07-13 08:09:06 51°32.215 3°7.739 21.112296 0.031054 0.172526 -0.444155
2004-07-13 08:10:06 51°32.359 3°8.015 21.124045 0.031054 0.172521 -0.410446
2004-07-13 08:11:06 51°32.502 3°8.29 21.139417 0.031054 0.172521 -0.410446
2004-07-13 08:12:04 51°32.639 3°8.56 21.145668 0.031054 0.172521 -0.410446
2004-07-13 08:13:05 51°32.781 3°8.839 21.150883 0.031054 0.172513 -0.410446
2004-07-13 08:14:05 51°32.922 3°9.113 21.156616 0.031054 0.172515 -0.410446
2004-07-13 08:15:06 51°33.065 3°9.393 21.176835 0.031054 0.172515 -0.444155
2004-07-13 08:16:06 51°33.205 3°9.67 21.18173 0.031054 0.172499 -0.444155
2004-07-13 08:17:05 51°33.342 3°9.944 21.191638 0.031054 0.172504 -0.444155
2004-07-13 08:18:06 51°33.479 3°10.237 21.198282 0.031054 0.172513 -0.444155
2004-07-13 08:19:05 51°33.607 3°10.526 21.210217 0.031054 0.172504 -0.410446
2004-07-13 08:20:13 51°33.755 3°10.853 21.219922 0.031054 0.17251 -0.410446
2004-07-13 08:21:12 51°33.885 3°11.139 21.22374 0.031054 0.172502 -0.444155
2004-07-13 08:22:12 51°34.018 3°11.432 21.236227 0.031054 0.172502 -0.410446
2004-07-13 08:23:12 51°34.149 3°11.728 21.242946 0.031054 0.172502 -0.444155
2004-07-13 08:24:13 51°34.283 3°12.03 21.25531 0.031054 0.172499 -0.444155
2004-07-13 08:25:12 51°34.413 3°12.321 17.706778 0.031054 0.173031 -0.444155
2004-07-13 08:26:15 51°34.551 3°12.631 17.197326 4.37714 33.587697 0.432289
2004-07-13 08:27:16 51°34.686 3°12.932 17.16134 4.361006 33.585457 0.39858
2004-07-13 08:28:16 51°34.811 3°13.236 17.14764 4.362905 33.622508 0.39858
2004-07-13 08:29:16 51°34.937 3°13.539 17.130016 4.344132 33.471679 0.364871
2004-07-13 08:30:14 51°35.06 3°13.833 17.130691 4.361956 33.63383 0.297452
2004-07-13 08:31:16 51°35.19 3°14.148 17.133601 4.354362 33.568963 0.331161
2004-07-13 08:32:16 51°35.314 3°14.455 17.123185 4.359846 33.621737 0.331161
2004-07-13 08:33:13 51°35.432 3°14.746 17.121962 4.359214 33.621157 0.465999
2004-07-13 08:34:16 51°35.565 3°15.063 17.126137 4.332109 33.387483 0.364871
2004-07-13 08:35:15 51°35.689 3°15.36 17.126305 4.351831 33.55992 0.39858
2004-07-13 08:36:16 51°35.82 3°15.668 17.127571 4.330105 33.370217 0.39858
2004-07-13 08:37:21 51°35.958 3°15.997 17.126601 4.337277 33.430197 0.39858
2004-07-13 08:38:22 51°36.089 3°16.307 17.13086 4.335906 33.412322 0.39858
2004-07-13 08:39:22 51°36.22 3°16.61 17.131661 4.300998 33.114165 0.465999
2004-07-13 08:40:22 51°36.349 3°16.917 17.139208 4.34023 33.450187 0.465999
2004-07-13 08:41:22 51°36.48 3°17.223 17.140178 4.336011 33.410808 0.432289
2004-07-13 08:42:20 51°36.608 3°17.517 17.142581 4.336433 33.412625 0.465999
2004-07-13 08:43:21 51°36.74 3°17.833 17.141232 4.35721 33.589251 0.465999
2004-07-13 08:44:22 51°36.866 3°18.151 17.12504 4.362483 33.640208 0.432289
2004-07-13 08:45:21 51°36.987 3°18.463 17.120275 4.366175 33.682429 0.465999
2004-07-13 08:46:21 51°37.109 3°18.778 17.10682 4.367335 33.701611 0.432289
2004-07-13 08:47:22 51°37.235 3°19.097 17.094628 4.36839 33.71928 0.499708
2004-07-13 08:48:21 51°37.357 3°19.406 17.076062 4.368285 33.734291 0.567127
2004-07-13 08:49:22 51°37.481 3°19.726 17.065131 4.36723 33.738663 0.499708
2004-07-13 08:50:22 51°37.605 3°20.034 17.048415 4.367652 33.744148 0.432289
2004-07-13 08:51:22 51°37.726 3°20.345 17.050948 4.366492 33.746387 0.39858
2004-07-13 08:52:22 51°37.851 3°20.654 17.042166 4.365754 33.744913 0.39858
2004-07-13 08:53:22 51°37.976 3°20.966 17.037986 4.365754 33.743073 0.364871
2004-07-13 08:54:22 51°38.098 3°21.275 17.038577 4.36491 33.741914 0.331161
2004-07-13 08:55:24 51°38.224 3°21.598 17.046768 4.364699 33.743158 0.364871
2004-07-13 08:56:25 51°38.348 3°21.918 17.050568 4.364699 33.735795 0.331161
2004-07-13 08:57:24 51°38.467 3°22.226 17.052214 4.364699 33.733342 0.364871
2004-07-13 08:58:23 51°38.596 3°22.521 17.04871 4.364699 33.729049 0.364871
2004-07-13 08:59:25 51°38.75 3°22.808 17.051539 4.364383 33.728154 0.432289
2004-07-13 09:00:24 51°38.895 3°23.08 17.05365 4.363961 33.722668 0.432289
2004-07-13 09:01:24 51°39.041 3°23.361 17.048499 4.363223 33.719352 0.432289
2004-07-13 09:02:24 51°39.188 3°23.639 17.027978 4.358477 33.688132 0.567127
2004-07-13 09:03:24 51°39.336 3°23.916 17.02764 4.353942 33.656888 0.668255
2004-07-13 09:04:24 51°39.483 3°24.195 17.028358 4.35352 33.652629 0.769383
2004-07-13 09:05:24 51°39.631 3°24.475 17.027387 4.352149 33.640164 0.735674
2004-07-13 09:06:24 51°39.78 3°24.757 17.024557 4.354469 33.661447 0.668255
2004-07-13 09:07:24 51°39.927 3°25.039 17.031863 4.355629 33.669027 0.668255
2004-07-13 09:08:24 51°40.076 3°25.319 17.039633 4.357633 33.683288 0.600836
2004-07-13 09:09:24 51°40.223 3°25.602 17.04356 4.356367 33.672347 0.567127
2004-07-13 09:10:25 51°40.372 3°25.886 17.038788 4.355207 33.660482 0.567127
2004-07-13 09:11:24 51°40.527 3°26.144 17.039337 4.354574 33.653176 0.634546
2004-07-13 09:12:24 51°40.698 3°26.38 17.040984 4.355102 33.65651 0.600836
2004-07-13 09:13:24 51°40.87 3°26.619 17.03731 4.354785 33.650716 0.600836
2004-07-13 09:14:24 51°41.041 3°26.856 17.042546 4.355313 33.657721 0.533418
2004-07-13 09:15:24 51°41.21 3°27.093 17.039717 4.357211 33.67168 0.533418
2004-07-13 09:16:24 51°41.38 3°27.331 17.043813 4.355945 33.659518 0.499708
2004-07-13 09:17:25 51°41.553 3°27.573 17.051328 4.354469 33.644923 0.533418
2004-07-13 09:18:25 51°41.718 3°27.812 17.058546 4.350672 33.608451 0.567127
2004-07-13 09:19:24 51°41.883 3°28.048 17.064287 4.347508 33.570746 0.668255
2004-07-13 09:20:25 51°42.059 3°28.289 17.078299 4.346137 33.552811 0.567127
2004-07-13 09:21:24 51°42.228 3°28.515 17.081 4.344027 33.530947 0.634546
2004-07-13 09:22:24 51°42.404 3°28.743 17.083025 4.342762 33.518806 0.735674
2004-07-13 09:23:24 51°42.581 3°28.971 17.084417 4.338543 33.477536 0.769383
2004-07-13 09:24:24 51°42.76 3°29.198 17.094924 4.33327 33.427794 0.769383
2004-07-13 09:25:24 51°42.941 3°29.426 17.100619 4.331477 33.403841 0.735674
2004-07-13 09:26:25 51°43.124 3°29.659 17.105344 4.328735 33.377171 0.735674
2004-07-13 09:27:24 51°43.302 3°29.886 17.108676 4.326309 33.352024 0.735674
2004-07-13 09:28:24 51°43.484 3°30.117 17.10644 4.323989 33.332029 0.600836
2004-07-13 09:29:24 51°43.667 3°30.347 17.111882 4.322407 33.313561 0.499708
2004-07-13 09:30:24 51°43.848 3°30.577 17.113147 4.319243 33.286906 0.432289
2004-07-13 09:31:25 51°44.034 3°30.811 17.121371 4.317661 33.267243 0.39858
2004-07-13 09:32:24 51°44.211 3°31.044 17.12892 4.314391 33.239086 0.364871
2004-07-13 09:33:24 51°44.353 3°31.344 17.128667 4.312388 33.215807 0.364871
2004-07-13 09:34:24 51°44.497 3°31.647 17.137269 4.309435 33.187978 0.364871
2004-07-13 09:35:24 51°44.628 3°31.967 17.140768 4.308696 33.172 0.331161
2004-07-13 09:36:24 51°44.752 3°32.292 17.143214 4.307536 33.161417 0.331161
2004-07-13 09:37:24 51°44.878 3°32.613 17.150043 4.308485 33.162972 0.331161
2004-07-13 09:38:24 51°44.971 3°32.958 17.161045 4.30838 33.159061 0.297452
2004-07-13 09:39:25 51°44.987 3°33.343 17.159148 4.30627 33.137315 0.331161
2004-07-13 09:40:24 51°45 3°33.717 17.167072 4.301735 33.09412 0.39858
2004-07-13 09:41:24 51°44.997 3°34.096 17.172972 4.298572 33.060931 0.331161
2004-07-13 09:42:25 51°44.994 3°34.48 17.167999 4.294564 33.027086 0.331161
2004-07-13 09:43:24 51°44.993 3°34.85 17.170654 4.292455 33.005971 0.331161
2004-07-13 09:44:24 51°44.99 3°35.229 17.166187 4.289502 32.984183 0.39858
2004-07-13 09:45:24 51°44.954 3°35.601 17.13339 4.283491 32.945662 0.701965
2004-07-13 09:46:24 51°44.913 3°35.973 17.113231 4.276109 32.901898 1.005349
2004-07-13 09:47:24 51°44.867 3°36.34 17.08792 4.270942 32.876551 1.106477
2004-07-13 09:48:25 51°44.809 3°36.564 17.073699 4.266092 32.848541 1.342443
2004-07-13 09:49:25 51°44.787 3°36.668 17.066018 4.254913 32.767269 1.207606
2004-07-13 09:50:25 51°44.789 3°36.713 17.070196 4.249852 32.718976 1.140187
2004-07-13 09:51:24 51°44.794 3°36.755 17.062134 4.246055 32.692266 1.140187
2004-07-13 09:52:24 51°44.799 3°36.799 17.057829 4.242365 32.667645 1.140187
2004-07-13 09:53:24 51°44.805 3°36.842 17.054536 4.240255 32.651286 1.275024
2004-07-13 09:54:24 51°44.81 3°36.885 17.059855 4.238885 32.641275 1.140187
2004-07-13 09:55:24 51°44.818 3°36.931 17.056605 4.238146 32.634926 1.207606
2004-07-13 09:56:25 51°44.812 3°37.016 17.065258 4.238463 32.630535 1.207606
2004-07-13 09:57:24 51°44.772 3°37.055 17.071462 4.236881 32.618119 1.275024
2004-07-13 09:58:25 51°44.742 3°37.019 17.06243 4.233295 32.583743 1.477281
2004-07-13 09:59:24 51°44.729 3°36.956 17.052468 4.230343 32.566051 1.409862
2004-07-13 10:00:25 51°44.717 3°36.876 17.056773 4.231187 32.572712 1.308734
2004-07-13 10:01:24 51°44.697 3°36.815 17.057576 4.233296 32.590253 1.275024
2004-07-13 10:02:24 51°44.68 3°36.761 17.055254 4.236037 32.615012 1.308734
2004-07-13 10:03:25 51°44.667 3°36.707 17.055 4.238674 32.634126 1.241315
2004-07-13 10:04:25 51°44.659 3°36.643 17.055507 4.239834 32.647658 1.207606
2004-07-13 10:05:24 51°44.648 3°36.576 17.063949 4.243314 32.676402 1.241315
2004-07-13 10:06:24 51°44.64 3°36.504 17.064245 4.249219 32.720069 1.376153
2004-07-13 10:07:24 51°44.634 3°36.431 17.065849 4.25407 32.760607 1.308734
2004-07-13 10:08:25 51°44.625 3°36.358 17.061881 4.255757 32.775122 1.308734
2004-07-13 10:09:24 51°44.611 3°36.288 17.069816 4.257128 32.786916 1.308734
2004-07-13 10:10:24 51°44.6 3°36.218 17.070702 4.25871 32.797548 1.376153
2004-07-13 10:11:25 51°44.589 3°36.145 17.077117 4.261452 32.81935 1.308734
2004-07-13 10:12:24 51°44.577 3°36.076 17.07602 4.264826 32.845404 1.308734
2004-07-13 10:13:24 51°44.569 3°36.004 17.081801 4.266303 32.856318 1.308734
2004-07-13 10:14:24 51°44.571 3°35.928 17.081801 4.268306 32.871172 1.173896
2004-07-13 10:15:24 51°44.587 3°35.852 17.089059 4.270415 32.885738 1.173896
2004-07-13 10:16:25 51°44.613 3°35.783 17.097792 4.272524 32.899109 1.140187
2004-07-13 10:17:24 51°44.646 3°35.724 17.095599 4.274633 32.913671 1.039059
2004-07-13 10:18:24 51°44.684 3°35.676 17.108845 4.275582 32.921837 1.039059
2004-07-13 10:19:24 51°44.728 3°35.637 17.1072 4.277059 32.926772 0.97164
2004-07-13 10:20:24 51°44.772 3°35.611 17.113906 4.277902 32.933432 0.97164
2004-07-13 10:21:24 51°44.82 3°35.599 17.110869 4.278851 32.937414 0.904221
2004-07-13 10:22:24 51°44.87 3°35.595 17.116901 4.279273 32.93925 0.870512
2004-07-13 10:23:24 51°44.923 3°35.607 17.119263 4.279906 32.940511 0.803093
2004-07-13 10:24:24 51°44.974 3°35.637 17.1231 4.280433 32.943253 0.803093
2004-07-13 10:25:24 51°45.021 3°35.682 17.130607 4.281593 32.949047 0.668255
2004-07-13 10:26:25 51°45.066 3°35.735 17.134064 4.282753 32.954243 0.634546
2004-07-13 10:27:22 51°45.105 3°35.784 17.14802 4.28328 32.953401 0.668255
2004-07-13 10:28:24 51°45.149 3°35.834 17.152488 4.284018 32.95079 0.634546
2004-07-13 10:29:23 51°45.189 3°35.88 17.155987 4.284229 32.949022 0.668255
2004-07-13 10:30:25 51°45.231 3°35.925 17.158221 4.28444 32.949044 0.668255
2004-07-13 10:31:24 51°45.271 3°35.966 17.155903 4.284124 32.943938 0.668255
2004-07-13 10:32:24 51°45.314 3°36.017 17.152994 4.283491 32.942678 0.735674
2004-07-13 10:33:24 51°45.356 3°36.088 17.147472 4.282437 32.936599 0.634546
2004-07-13 10:34:25 51°45.402 3°36.166 17.150676 4.281909 32.935051 0.600836
2004-07-13 10:35:25 51°45.449 3°36.24 17.153121 4.280538 32.925654 0.600836
2004-07-13 10:36:25 51°45.484 3°36.297 17.15017 4.280749 32.920309 0.634546
2004-07-13 10:37:25 51°45.511 3°36.344 17.152109 4.280538 32.917305 0.701965
2004-07-13 10:38:24 51°45.547 3°36.406 17.149959 4.2798 32.915135 0.668255
2004-07-13 10:39:24 51°45.586 3°36.494 17.149875 4.279273 32.911797 0.735674
2004-07-13 10:40:25 51°45.614 3°36.583 17.151982 4.278535 32.905453 0.668255
2004-07-13 10:41:25 51°45.644 3°36.661 17.15076 4.278429 32.900374 0.668255
2004-07-13 10:42:24 51°45.673 3°36.733 17.14979 4.276953 32.88769 0.668255
2004-07-13 10:43:25 51°45.699 3°36.808 17.150549 4.276425 32.883159 0.634546
2004-07-13 10:44:28 51°45.725 3°36.884 17.152994 4.275687 32.878008 0.735674
2004-07-13 10:45:28 51°45.746 3°36.957 17.149411 4.275371 32.875886 0.701965
2004-07-13 10:46:28 51°45.768 3°37.03 17.148736 4.274738 32.868664 0.701965
2004-07-13 10:47:28 51°45.789 3°37.104 17.151982 4.274211 32.865324 0.769383
2004-07-13 10:48:28 51°45.81 3°37.177 17.154807 4.273894 32.863202 0.836802
2004-07-13 10:49:28 51°45.833 3°37.247 17.149411 4.274105 32.862037 0.769383
2004-07-13 10:50:28 51°45.859 3°37.315 17.14743 4.273051 32.85774 0.870512
2004-07-13 10:51:28 51°45.885 3°37.383 17.143087 4.272207 32.851682 0.904221
2004-07-13 10:52:27 51°45.912 3°37.451 17.144942 4.271574 32.849817 0.836802
2004-07-13 10:53:28 51°45.938 3°37.522 17.145153 4.271574 32.845056 0.870512
2004-07-13 10:54:28 51°45.964 3°37.593 17.14764 4.271258 32.844718 0.904221
2004-07-13 10:55:28 51°45.99 3°37.663 17.145617 4.271047 32.843501 0.97164
2004-07-13 10:56:28 51°46.014 3°37.735 17.150465 4.270836 32.838715 0.93793
2004-07-13 10:57:28 51°46.039 3°37.805 17.149369 4.270203 32.83209 0.836802
2004-07-13 10:58:28 51°46.065 3°37.874 17.148399 4.269465 32.827533 0.97164
2004-07-13 10:59:28 51°46.092 3°37.943 17.146081 4.269149 32.821842 1.005349
2004-07-13 11:00:27 51°46.119 3°38.011 17.14802 4.268516 32.818785 1.005349
2004-07-13 11:01:28 51°46.147 3°38.082 17.146081 4.268094 32.814568 1.039059
2004-07-13 11:02:28 51°46.172 3°38.154 17.144436 4.267145 32.810576 0.97164
2004-07-13 11:03:27 51°46.195 3°38.226 17.146502 4.266618 32.806641 0.97164
2004-07-13 11:04:27 51°46.22 3°38.297 17.142118 4.266091 32.801518 1.039059
2004-07-13 11:05:28 51°46.245 3°38.369 17.143382 4.265036 32.794836 0.93793
2004-07-13 11:06:28 51°46.272 3°38.437 17.141232 4.264825 32.79243 0.97164
2004-07-13 11:07:27 51°46.298 3°38.503 17.142244 4.264298 32.785525 1.005349
2004-07-13 11:08:28 51°46.326 3°38.57 17.142623 4.263349 32.779748 0.97164
2004-07-13 11:09:28 51°46.353 3°38.636 17.144731 4.262927 32.774938 0.97164
2004-07-13 11:10:28 51°46.381 3°38.703 17.145533 4.262505 32.770127 1.039059
2004-07-13 11:11:28 51°46.409 3°38.769 17.147556 4.262189 32.764442 1.039059
2004-07-13 11:12:28 51°46.435 3°38.833 17.142328 4.261029 32.757448 1.072768
2004-07-13 11:13:28 51°46.461 3°38.898 17.145406 4.260291 32.748735 1.039059
2004-07-13 11:14:33 51°46.491 3°38.968 17.149032 4.259447 32.740305 1.039059
2004-07-13 11:15:33 51°46.518 3°39.033 17.154259 4.258498 32.728598 1.005349
2004-07-13 11:16:33 51°46.547 3°39.109 17.149032 4.257127 32.720385 1.005349
2004-07-13 11:17:32 51°46.582 3°39.2 17.155397 4.256283 32.711957 0.97164
2004-07-13 11:18:33 51°46.618 3°39.303 17.153289 4.25565 32.705932 0.93793
2004-07-13 11:19:33 51°46.652 3°39.412 17.155692 4.252909 32.682396 0.870512
2004-07-13 11:20:33 51°46.686 3°39.498 17.157378 4.252487 32.674041 0.93793
2004-07-13 11:21:33 51°46.722 3°39.557 17.159781 4.251432 32.66085 0.93793
2004-07-13 11:22:32 51°46.753 3°39.599 17.158896 4.250061 32.652043 0.97164
2004-07-13 11:23:32 51°46.781 3°39.634 17.1586 4.249429 32.646022 1.039059
2004-07-13 11:24:33 51°46.805 3°39.667 17.160286 4.249323 32.645708 1.005349
2004-07-13 11:25:33 51°46.83 3°39.698 17.160413 4.249112 32.642716 1.039059
2004-07-13 11:26:32 51°46.858 3°39.731 17.161087 4.249112 32.641534 1.072768
2004-07-13 11:27:33 51°46.89 3°39.762 17.1637 4.249323 32.640389 1.039059
2004-07-13 11:28:33 51°46.924 3°39.795 17.168674 4.249639 32.642512 0.93793
2004-07-13 11:29:33 51°46.959 3°39.825 17.171202 4.250167 32.645854 1.005349
2004-07-13 11:30:33 51°46.992 3°39.856 17.174869 4.250694 32.643877 0.93793
2004-07-13 11:31:32 51°47.025 3°39.884 17.18001 4.251854 32.651464 0.97164
2004-07-13 11:32:33 51°47.059 3°39.91 17.178956 4.251432 32.649618 0.97164
2004-07-13 11:33:32 51°47.09 3°39.933 17.183423 4.251959 32.652959 0.93793
2004-07-13 11:34:32 51°47.121 3°39.954 17.184265 4.252592 32.65425 0.93793
2004-07-13 11:35:33 51°47.151 3°39.972 17.191765 4.253225 32.656131 0.93793
2004-07-13 11:36:32 51°47.194 3°39.909 17.193661 4.253857 32.658012 0.93793
2004-07-13 11:37:33 51°47.128 3°39.762 17.212574 4.255861 32.668103 0.93793
2004-07-13 11:38:33 51°47.019 3°39.717 17.205793 4.259657 32.691787 0.769383
2004-07-13 11:39:32 51°46.983 3°39.824 17.205625 4.259552 32.692656 0.870512
2004-07-13 11:40:38 51°46.998 3°39.877 17.200317 4.257126 32.674225 0.870512
2004-07-13 11:41:38 51°47.013 3°39.917 17.185235 4.25449 32.661074 0.97164
2004-07-13 11:42:38 51°47.026 3°39.951 17.184771 4.252381 32.653032 1.039059
2004-07-13 11:43:37 51°47.039 3°39.983 17.189701 4.252065 32.646183 1.106477
2004-07-13 11:44:38 51°47.053 3°40.014 17.197789 4.251854 32.639059 1.072768
2004-07-13 11:45:37 51°47.072 3°40.054 17.207015 4.252064 32.634964 1.072768
2004-07-13 11:46:38 51°47.156 3°40.09 17.202381 4.252381 32.628235 1.005349
2004-07-13 11:47:38 51°47.205 3°39.95 17.205456 4.251432 32.631901 1.072768
2004-07-13 11:48:38 51°47.114 3°39.712 17.206678 4.255228 32.652638 0.93793
2004-07-13 11:49:38 51°47.001 3°39.435 17.194714 4.25913 32.688448 1.039059
2004-07-13 11:50:37 51°46.887 3°39.163 17.188226 4.260606 32.711162 1.072768
2004-07-13 11:51:36 51°46.773 3°38.892 17.176807 4.263559 32.733527 1.106477
2004-07-13 11:52:37 51°46.653 3°38.612 17.179841 4.26725 32.783568 1.106477
2004-07-13 11:53:44 51°46.519 3°38.307 17.167241 4.270519 32.815785 1.140187
2004-07-13 11:54:45 51°46.395 3°38.034 17.172972 4.273156 32.837231 1.173896
2004-07-13 11:55:44 51°46.279 3°37.768 17.182622 4.276636 32.84749 1.173896
2004-07-13 11:56:45 51°46.156 3°37.493 17.181569 4.28001 32.88359 1.072768
2004-07-13 11:57:44 51°46.032 3°37.232 17.18633 4.282858 32.910416 1.072768
2004-07-13 11:58:45 51°45.904 3°36.959 17.192481 4.285389 32.929765 1.039059
2004-07-13 11:59:44 51°45.785 3°36.693 17.184771 4.288553 32.95395 1.039059
2004-07-13 12:00:44 51°45.67 3°36.419 17.204277 4.292349 32.977005 0.870512
2004-07-13 12:01:45 51°45.552 3°36.139 17.206888 4.294564 32.994229 0.870512
2004-07-13 12:02:45 51°45.437 3°35.861 17.187383 4.294458 32.996307 0.97164
2004-07-13 12:03:45 51°45.33 3°35.573 17.180305 4.293404 32.997996 0.97164
2004-07-13 12:04:45 51°45.225 3°35.283 17.165429 4.294037 33.014185 0.97164
2004-07-13 12:05:44 51°45.124 3°34.993 17.164417 4.296041 33.045161 1.005349
2004-07-13 12:06:45 51°45.027 3°34.685 17.154259 4.29931 33.077459 1.106477
2004-07-13 12:07:45 51°44.93 3°34.382 17.177018 4.301314 33.086897 0.870512
2004-07-13 12:08:45 51°44.828 3°34.083 17.217418 4.304477 33.097316 0.836802
2004-07-13 12:09:45 51°44.693 3°33.834 17.201876 4.310488 33.129193 0.769383
2004-07-13 12:10:45 51°44.54 3°33.618 17.206593 4.312703 33.153016 0.668255
2004-07-13 12:11:44 51°44.378 3°33.429 17.204824 4.314917 33.163048 0.600836
2004-07-13 12:12:44 51°44.209 3°33.243 17.207099 4.314496 33.167222 0.701965
2004-07-13 12:13:45 51°44.039 3°33.062 17.213964 4.314917 33.169047 0.93793
2004-07-13 12:14:50 51°43.84 3°32.918 17.244829 4.316605 33.166748 1.106477
2004-07-13 12:15:48 51°43.653 3°32.828 17.242724 4.316288 33.141865 1.207606
2004-07-13 12:16:49 51°43.458 3°32.74 17.196189 4.302473 33.053776 1.612118
2004-07-13 12:17:50 51°43.26 3°32.657 17.181653 4.296462 33.026656 1.5447
2004-07-13 12:18:49 51°43.069 3°32.6 17.167578 4.28676 32.95764 1.679537
2004-07-13 12:19:50 51°42.87 3°32.58 17.190501 4.288658 32.963802 1.814375
2004-07-13 12:20:50 51°42.676 3°32.642 17.231398 4.296356 33.004249 1.713247
2004-07-13 12:21:50 51°42.486 3°32.748 17.18574 4.300996 33.036919 1.645828
2004-07-13 12:22:50 51°42.3 3°32.864 17.190585 4.300259 33.066454 1.679537
2004-07-13 12:23:49 51°42.115 3°32.982 17.187594 4.297727 33.020199 1.780665
2004-07-13 12:24:49 51°41.927 3°33.105 17.256237 4.288869 32.937597 1.848084
2004-07-13 12:25:50 51°41.736 3°33.238 17.22744 4.300258 33.013871 1.713247
2004-07-13 12:26:50 51°41.549 3°33.37 17.201202 4.304371 33.070674 1.713247
2004-07-13 12:27:50 51°41.358 3°33.496 17.16467 4.305215 33.098867 1.713247
2004-07-13 12:28:50 51°41.166 3°33.626 17.203687 4.303845 33.111656 1.645828
2004-07-13 12:29:54 51°40.958 3°33.759 17.201202 4.321878 33.207238 1.409862
2004-07-13 12:30:53 51°40.761 3°33.863 17.1586 4.332952 33.338531 1.342443
2004-07-13 12:31:59 51°40.538 3°33.947 17.154512 4.328628 33.338149 1.308734
2004-07-13 12:33:00 51°40.325 3°33.959 17.134275 4.329472 33.33454 1.5447
2004-07-13 12:34:00 51°40.14 3°33.797 17.171834 4.327363 33.321818 1.578409
2004-07-13 12:34:57 51°40.009 3°33.54 17.192228 4.330737 33.322496 1.443571
2004-07-13 12:36:00 51°39.873 3°33.238 17.220197 4.333374 33.336126 1.275024
2004-07-13 12:37:00 51°39.738 3°32.957 17.166187 4.337276 33.369086 1.173896
2004-07-13 12:38:00 51°39.608 3°32.667 17.183128 4.337909 33.392054 1.106477
2004-07-13 12:39:00 51°39.487 3°32.365 17.186499 4.340967 33.399027 1.072768
2004-07-13 12:40:00 51°39.374 3°32.052 17.172172 4.33812 33.389637 1.173896
2004-07-13 12:41:00 51°39.259 3°31.744 17.203224 4.339807 33.406578 1.140187
2004-07-13 12:42:00 51°39.145 3°31.436 17.203097 4.345924 33.441068 1.140187
2004-07-13 12:43:00 51°39.02 3°31.144 17.20971 4.347928 33.455283 0.97164
2004-07-13 12:44:05 51°38.843 3°30.886 17.222429 4.352356 33.44741 0.668255
2004-07-13 12:45:05 51°38.667 3°30.68 17.205245 4.347295 33.457103 0.904221
2004-07-13 12:46:05 51°38.461 3°30.577 17.229293 4.352252 33.476137 0.870512
2004-07-13 12:47:05 51°38.249 3°30.503 17.215775 4.356154 33.508492 0.904221
2004-07-13 12:48:09 51°38.024 3°30.426 17.184771 4.359213 33.552399 1.005349
2004-07-13 12:49:08 51°37.813 3°30.437 17.182454 4.362904 33.597551 0.769383
2004-07-13 12:50:10 51°37.592 3°30.455 17.165976 4.366912 33.644862 0.600836
2004-07-13 12:51:10 51°37.42 3°30.484 17.200106 4.371025 33.680919 0.39858
2004-07-13 12:52:09 51°37.369 3°30.553 17.439593 4.377351 33.6101 0.331161
2004-07-13 12:53:10 51°37.372 3°30.584 17.443623 4.378721 33.513731 0.364871
2004-07-13 12:54:10 51°37.383 3°30.602 17.366385 4.370495 33.467369 0.39858
2004-07-13 12:55:10 51°37.395 3°30.618 17.292047 4.359 33.445316 0.668255
2004-07-13 12:56:15 51°37.403 3°30.672 17.278752 4.351723 33.427481 0.870512
2004-07-13 12:57:15 51°37.367 3°30.7 17.243229 4.34856 33.441367 0.97164
2004-07-13 12:58:15 51°37.327 3°30.646 17.344319 4.349614 33.393689 0.769383
2004-07-13 12:59:14 51°37.289 3°30.585 17.29537 4.352355 33.389518 0.634546
2004-07-13 13:00:14 51°37.249 3°30.528 17.252069 4.346345 33.381286 0.701965
2004-07-13 13:01:14 51°37.214 3°30.468 17.22744 4.341916 33.372775 0.769383
2004-07-13 13:02:14 51°37.184 3°30.402 17.256994 4.341177 33.363416 0.735674
2004-07-13 13:03:15 51°37.16 3°30.327 17.243608 4.342443 33.362234 0.701965
2004-07-13 13:04:12 51°37.14 3°30.257 17.236156 4.342021 33.364637 0.668255
2004-07-13 13:05:12 51°37.119 3°30.182 17.229377 4.340439 33.36672 0.803093
2004-07-13 13:06:15 51°37.097 3°30.104 17.229756 4.340334 33.363401 0.769383
2004-07-13 13:07:14 51°37.076 3°30.031 17.242429 4.341177 33.367034 0.803093
2004-07-13 13:08:14 51°37.053 3°29.958 17.226598 4.341705 33.370359 0.836802
2004-07-13 13:09:14 51°37.031 3°29.885 17.215565 4.339279 33.371227 0.904221
2004-07-13 13:10:15 51°37.009 3°29.808 17.18081 4.340756 33.380905 0.836802
2004-07-13 13:11:14 51°36.991 3°29.731 17.154765 4.336538 33.3863 1.039059
2004-07-13 13:12:15 51°36.973 3°29.65 17.144858 4.33464 33.384471 1.072768
2004-07-13 13:13:14 51°36.957 3°29.571 17.168421 4.337171 33.406268 1.072768
2004-07-13 13:14:14 51°36.939 3°29.493 17.209879 4.345502 33.435018 0.93793
2004-07-13 13:15:14 51°36.92 3°29.415 17.172551 4.347717 33.456495 1.039059
2004-07-13 13:16:12 51°36.901 3°29.341 17.170359 4.345291 33.458631 1.072768
2004-07-13 13:17:15 51°36.878 3°29.263 17.358568 4.351091 33.457689 0.93793
2004-07-13 13:18:14 51°36.859 3°29.189 17.405498 4.364905 33.437538 0.533418
2004-07-13 13:19:13 51°36.842 3°29.115 17.380755 4.360581 33.4023 0.432289
2004-07-13 13:20:14 51°36.825 3°29.039 17.393023 4.355097 33.372138 0.465999
2004-07-13 13:21:14 51°36.808 3°28.964 17.328637 4.350351 33.341079 0.39858
2004-07-13 13:22:15 51°36.793 3°28.886 17.351549 4.344868 33.334307 0.432289
2004-07-13 13:23:14 51°36.781 3°28.809 17.325105 4.344656 33.321082 0.465999
2004-07-13 13:24:15 51°36.769 3°28.729 17.310681 4.342864 33.305108 0.465999
2004-07-13 13:25:15 51°36.757 3°28.651 17.301007 4.340333 33.30682 0.533418
2004-07-13 13:26:15 51°36.744 3°28.575 17.323003 4.338434 33.289332 0.432289
2004-07-13 13:27:15 51°36.732 3°28.498 17.303362 4.339067 33.279754 0.465999
2004-07-13 13:28:14 51°36.716 3°28.423 17.281529 4.335587 33.273908 0.465999
2004-07-13 13:29:14 51°36.698 3°28.349 17.294655 4.334111 33.270245 0.499708
2004-07-13 13:30:15 51°36.681 3°28.271 17.320227 4.335481 33.261001 0.499708
2004-07-13 13:31:15 51°36.665 3°28.195 17.336457 4.337274 33.255388 0.432289
2004-07-13 13:32:14 51°36.648 3°28.121 17.337004 4.337063 33.252382 0.432289
2004-07-13 13:33:14 51°36.634 3°28.042 17.358442 4.338328 33.24885 0.432289
2004-07-13 13:34:14 51°36.618 3°27.957 17.349699 4.337063 33.249386 0.39858
2004-07-13 13:35:15 51°36.612 3°27.857 17.403272 4.339699 33.240841 0.364871
2004-07-13 13:36:15 51°36.624 3°27.753 17.445932 4.342968 33.234745 0.331161
2004-07-13 13:37:14 51°36.655 3°27.656 17.482105 4.346447 33.225106 0.297452
2004-07-13 13:38:14 51°36.689 3°27.595 17.46763 4.346131 33.215843 0.297452
2004-07-13 13:39:14 51°36.714 3°27.556 17.499178 4.346025 33.211961 0.297452
2004-07-13 13:40:14 51°36.737 3°27.529 17.523207 4.348029 33.202866 0.331161
2004-07-13 13:41:15 51°36.758 3°27.506 17.513228 4.348345 33.197235 0.364871
2004-07-13 13:42:14 51°36.775 3°27.49 17.472329 4.347396 33.201035 0.432289
2004-07-13 13:43:14 51°36.791 3°27.478 17.380461 4.345498 33.229522 0.499708
2004-07-13 13:44:13 51°36.805 3°27.466 17.318671 4.340121 33.273802 0.769383
2004-07-13 13:45:14 51°36.831 3°27.474 17.278036 4.338329 33.281224 0.701965
2004-07-13 13:46:15 51°36.841 3°27.529 17.280098 4.335165 33.259487 0.735674
2004-07-13 13:47:15 51°36.838 3°27.606 17.34167 4.335165 33.277494 0.634546
2004-07-13 13:48:14 51°36.85 3°27.699 17.4962 4.342546 33.230539 0.432289
2004-07-13 13:49:17 51°36.865 3°27.805 17.52153 4.351298 33.226015 0.39858
2004-07-13 13:50:18 51°36.875 3°27.906 17.44589 4.352247 33.241866 0.499708
2004-07-13 13:51:17 51°36.87 3°27.986 17.374705 4.344761 33.257858 0.567127
2004-07-13 13:52:16 51°36.867 3°28.06 17.460076 4.342019 33.255922 0.634546
2004-07-13 13:53:19 51°36.872 3°28.14 17.509999 4.349928 33.239338 0.567127
2004-07-13 13:54:17 51°36.88 3°28.213 17.54027 4.353724 33.231237 0.533418
2004-07-13 13:55:19 51°36.885 3°28.289 17.485503 4.353196 33.232095 0.533418
2004-07-13 13:56:20 51°36.884 3°28.364 17.474343 4.348135 33.235351 0.668255
2004-07-13 13:57:17 51°36.885 3°28.434 17.494229 4.348346 33.228208 0.634546
2004-07-13 13:58:17 51°36.883 3°28.508 17.489866 4.34824 33.224922 0.668255
2004-07-13 13:59:18 51°36.882 3°28.582 17.561268 4.348662 33.217202 0.668255
2004-07-13 14:00:18 51°36.88 3°28.656 17.692558 4.357097 33.194632 0.600836
2004-07-13 14:01:18 51°36.879 3°28.728 17.797127 4.36374 33.168844 0.533418
2004-07-13 14:02:19 51°36.878 3°28.801 17.780504 4.365005 33.124118 0.465999
2004-07-13 14:03:19 51°36.877 3°28.874 17.823558 4.35815 33.067137 0.567127
2004-07-13 14:04:18 51°36.877 3°28.947 17.733243 4.356884 33.03525 0.499708
2004-07-13 14:05:19 51°36.874 3°29.02 17.579452 4.338746 33.001807 0.533418
2004-07-13 14:06:19 51°36.874 3°29.09 17.555275 4.325459 32.97362 0.634546
2004-07-13 14:07:18 51°36.876 3°29.161 17.568517 4.324404 32.954604 0.567127
2004-07-13 14:08:19 51°36.881 3°29.236 17.590218 4.325037 32.945844 0.465999
2004-07-13 14:09:18 51°36.884 3°29.31 17.566213 4.324193 32.942196 0.432289
2004-07-13 14:10:19 51°36.888 3°29.386 17.573 4.322295 32.940767 0.465999
2004-07-13 14:11:18 51°36.89 3°29.459 17.504924 4.322611 32.940514 0.499708
2004-07-13 14:12:18 51°36.891 3°29.532 17.512641 4.317655 32.953156 0.533418
2004-07-13 14:13:19 51°36.893 3°29.607 17.530377 4.319764 32.939845 0.499708
2004-07-13 14:14:18 51°36.894 3°29.679 17.515115 4.318288 32.942605 0.499708
2004-07-13 14:15:18 51°36.896 3°29.753 17.527442 4.318288 32.939653 0.499708
2004-07-13 14:16:19 51°36.897 3°29.83 17.591936 4.319869 32.932485 0.465999
2004-07-13 14:17:19 51°36.898 3°29.905 17.694022 4.326934 32.927261 0.432289
2004-07-13 14:18:19 51°36.899 3°29.981 17.792408 4.336108 32.925334 0.465999
2004-07-13 14:19:19 51°36.9 3°30.056 17.858157 4.345599 32.920308 0.499708
2004-07-13 14:20:18 51°36.901 3°30.131 17.781172 4.342118 32.90311 0.600836
2004-07-13 14:21:18 51°36.902 3°30.207 17.781757 4.333155 32.863981 0.668255
2004-07-13 14:22:17 51°36.901 3°30.281 17.765882 4.328725 32.831109 0.735674
2004-07-13 14:23:19 51°36.898 3°30.356 17.722792 4.325983 32.811369 0.769383
2004-07-13 14:24:18 51°36.883 3°30.422 17.602993 4.318285 32.798653 0.836802
2004-07-13 14:25:18 51°36.858 3°30.479 17.498423 4.305105 32.796741 1.039059
2004-07-13 14:26:18 51°36.835 3°30.538 17.525304 4.297091 32.783687 1.072768
2004-07-13 14:27:20 51°36.822 3°30.592 17.652268 4.303733 32.761616 0.93793
2004-07-13 14:28:18 51°36.817 3°30.627 17.767261 4.312801 32.751526 0.701965
2004-07-13 14:29:20 51°36.816 3°30.654 17.800635 4.321342 32.750478 0.634546
2004-07-13 14:30:20 51°36.818 3°30.672 17.829235 4.321764 32.746482 0.634546
2004-07-13 14:31:18 51°36.821 3°30.694 17.865334 4.325982 32.744958 0.668255
2004-07-13 14:32:19 51°36.827 3°30.723 17.877182 4.327669 32.742378 0.567127
2004-07-13 14:33:19 51°36.84 3°30.753 17.872551 4.327985 32.740407 0.567127
2004-07-13 14:34:19 51°36.86 3°30.781 17.886775 4.327353 32.735058 0.499708
2004-07-13 14:35:19 51°36.881 3°30.8 17.900663 4.328934 32.736238 0.465999
2004-07-13 14:36:19 51°36.902 3°30.808 17.88957 4.329567 32.735202 0.499708
2004-07-13 14:37:20 51°36.927 3°30.807 17.754433 4.32324 32.742108 0.735674
2004-07-13 14:38:18 51°36.947 3°30.798 17.686661 4.313434 32.738804 0.803093
2004-07-13 14:39:19 51°36.967 3°30.781 17.693897 4.309005 32.734483 0.93793
2004-07-13 14:40:19 51°36.984 3°30.758 17.744152 4.311957 32.730364 0.870512
2004-07-13 14:41:18 51°37.004 3°30.731 17.784263 4.315859 32.73372 0.93793
2004-07-13 14:42:19 51°37.027 3°30.686 17.820009 4.320815 32.739609 0.93793
2004-07-13 14:43:19 51°37.04 3°30.655 17.781339 4.321448 32.743221 0.803093
2004-07-13 14:44:19 51°37.051 3°30.623 17.704938 4.316598 32.765056 0.870512
2004-07-13 14:45:18 51°37.06 3°30.596 17.720241 4.315016 32.757474 0.870512
2004-07-13 14:46:20 51°37.072 3°30.559 17.911254 4.320604 32.745972 1.039059
2004-07-13 14:47:18 51°37.071 3°30.352 17.808486 4.325349 32.751233 0.93793
2004-07-13 14:48:19 51°37.057 3°29.981 17.600815 4.311853 32.768008 0.870512
2004-07-13 14:49:20 51°37.011 3°29.606 17.59269 4.311958 32.761305 0.668255
2004-07-13 14:50:18 51°36.941 3°29.26 17.580793 4.308478 32.773856 0.870512
2004-07-13 14:51:19 51°36.873 3°28.895 17.502156 4.301098 32.822562 1.106477
2004-07-13 14:52:18 51°36.808 3°28.542 17.42851 4.303629 32.862421 1.072768
2004-07-13 14:53:18 51°36.742 3°28.183 17.427418 4.311013 32.987016 1.173896
2004-07-13 14:54:17 51°36.689 3°27.824 17.414863 4.321453 33.025821 1.140187
2004-07-13 14:55:19 51°36.626 3°27.444 17.332295 4.317341 33.053624 1.072768
2004-07-13 14:56:19 51°36.567 3°27.074 17.316064 4.313018 33.060072 1.072768
2004-07-13 14:57:18 51°36.503 3°26.714 17.322035 4.313545 33.070552 1.005349
2004-07-13 14:58:19 51°36.424 3°26.352 17.300334 4.314072 33.064339 1.039059
2004-07-13 14:59:20 51°36.346 3°25.994 17.40848 4.316076 33.087468 1.039059
2004-07-13 15:00:18 51°36.284 3°25.646 17.351717 4.327465 33.125371 1.005349
2004-07-13 15:01:19 51°36.233 3°25.274 17.346715 4.319556 33.088659 1.039059
2004-07-13 15:02:20 51°36.179 3°24.903 17.353398 4.311751 33.014714 1.173896
2004-07-13 15:03:18 51°36.135 3°24.552 17.347009 4.30922 33.001968 1.173896
2004-07-13 15:04:20 51°36.091 3°24.174 17.339358 4.306479 32.985629 1.241315
2004-07-13 15:05:19 51°36.051 3°23.816 17.330992 4.305951 32.982898 1.308734
2004-07-13 15:06:16 51°36.012 3°23.469 17.339358 4.30669 32.986841 1.376153
2004-07-13 15:07:17 51°35.97 3°23.096 17.315896 4.305213 32.986087 1.5447
2004-07-13 15:08:18 51°35.93 3°22.72 17.315097 4.304475 32.982144 1.612118
2004-07-13 15:09:19 51°35.887 3°22.348 17.325021 4.305846 32.989127 1.713247
2004-07-13 15:10:19 51°35.844 3°21.979 17.326745 4.307006 32.995493 1.746956
2004-07-13 15:11:20 51°35.801 3°21.604 17.347724 4.307111 32.994612 1.679537
2004-07-13 15:12:18 51°35.758 3°21.246 17.366553 4.309326 32.993957 1.645828
2004-07-13 15:13:17 51°35.714 3°20.88 17.38105 4.309853 32.990748 1.645828
2004-07-13 15:14:19 51°35.666 3°20.501 17.408018 4.312384 32.986279 1.612118
2004-07-13 15:15:18 51°35.579 3°20.17 17.499933 4.316496 32.999487 1.645828
2004-07-13 15:16:23 51°35.442 3°19.839 17.630586 4.33263 32.996927 1.275024
2004-07-13 15:17:22 51°35.323 3°19.535 17.603872 4.338114 33.041254 1.477281
2004-07-13 15:18:23 51°35.199 3°19.224 17.579913 4.342016 33.072115 1.5447
2004-07-13 15:19:24 51°35.076 3°18.911 17.474553 4.341384 33.114092 1.51099
2004-07-13 15:20:22 51°34.96 3°18.611 17.439677 4.333053 33.102941 1.376153
2004-07-13 15:21:22 51°34.84 3°18.298 17.410454 4.329679 33.105612 1.51099
2004-07-13 15:22:23 51°34.719 3°17.979 17.446226 4.329257 33.102601 1.5447
2004-07-13 15:23:22 51°34.603 3°17.674 17.456635 4.329257 33.082988 1.578409
2004-07-13 15:24:24 51°34.481 3°17.354 17.459237 4.327886 33.07484 1.612118
2004-07-13 15:25:23 51°34.366 3°17.049 17.469098 4.328308 33.073099 1.612118
2004-07-13 15:26:22 51°34.249 3°16.744 17.463517 4.330311 33.089026 1.612118
2004-07-13 15:27:21 51°34.133 3°16.436 17.470861 4.333264 33.105336 1.612118
2004-07-13 15:28:23 51°34.011 3°16.113 17.493054 4.334846 33.125386 1.578409
2004-07-13 15:29:22 51°33.894 3°15.807 17.484413 4.340857 33.158888 1.443571
2004-07-13 15:30:23 51°33.774 3°15.495 17.519224 4.343705 33.1719 1.308734
2004-07-13 15:31:22 51°33.66 3°15.191 17.562106 4.344654 33.163353 1.308734
2004-07-13 15:32:24 51°33.539 3°14.875 17.595664 4.349926 33.159039 1.275024
2004-07-13 15:33:24 51°33.424 3°14.565 17.600396 4.350981 33.152014 1.241315
2004-07-13 15:34:22 51°33.313 3°14.263 17.576226 4.348239 33.14703 1.308734
2004-07-13 15:35:24 51°33.192 3°13.943 17.626442 4.3533 33.151035 1.207606
2004-07-13 15:36:23 51°33.076 3°13.638 17.600731 4.359101 33.217045 1.173896
2004-07-13 15:37:22 51°32.959 3°13.329 17.609652 4.365007 33.261425 1.072768
2004-07-13 15:38:23 51°32.838 3°13.012 17.603077 4.36543 33.284655 1.039059
2004-07-13 15:39:23 51°32.718 3°12.702 17.621669 4.366695 33.274614 1.039059
2004-07-13 15:40:24 51°32.597 3°12.387 17.626819 4.366484 33.271628 0.97164
2004-07-13 15:41:25 51°32.474 3°12.07 17.604291 4.369332 33.294702 0.904221
2004-07-13 15:42:25 51°32.356 3°11.757 17.615221 4.371019 33.311463 0.870512
2004-07-13 15:43:24 51°32.237 3°11.453 17.622506 4.373234 33.33153 0.803093
2004-07-13 15:44:25 51°32.114 3°11.136 17.600438 4.373023 33.347617 0.803093
2004-07-13 15:45:32 51°31.981 3°10.784 17.573922 4.374394 33.355133 0.870512
2004-07-13 15:46:29 51°31.865 3°10.486 17.561561 4.371442 33.358592 0.836802
2004-07-13 15:47:30 51°31.741 3°10.166 17.567763 4.373445 33.369719 0.836802
2004-07-13 15:48:32 51°31.617 3°9.838 17.544378 4.37334 33.375988 0.870512
2004-07-13 15:49:36 51°31.488 3°9.501 17.519685 4.370915 33.378594 0.769383
2004-07-13 15:50:36 51°31.367 3°9.186 17.530586 4.371337 33.383393 0.769383
2004-07-13 15:51:36 51°31.246 3°8.872 17.521237 4.372602 33.392407 0.769383
2004-07-13 15:52:36 51°31.126 3°8.555 17.4949 4.370388 33.393838 0.735674
2004-07-13 15:53:36 51°31.004 3°8.239 17.528281 4.371021 33.402839 0.668255
2004-07-13 15:54:36 51°30.882 3°7.919 17.519308 4.374184 33.411905 0.735674
2004-07-13 15:55:36 51°30.762 3°7.602 17.53285 4.374395 33.414905 0.735674
2004-07-13 15:56:36 51°30.641 3°7.284 17.498717 4.37545 33.425712 0.634546
2004-07-13 15:57:43 51°30.505 3°6.928 17.534485 4.376505 33.431727 0.735674
2004-07-13 15:58:44 51°30.38 3°6.603 17.54115 4.378614 33.443155 0.634546
2004-07-13 15:59:43 51°30.26 3°6.29 17.552593 4.381567 33.4516 0.701965
2004-07-13 16:00:49 51°30.122 3°5.94 17.575095 4.383676 33.467215 0.701965
2004-07-13 16:01:48 51°30.002 3°5.626 17.614132 4.389898 33.482586 0.735674
2004-07-13 16:02:49 51°29.877 3°5.301 17.600815 4.388105 33.470882 0.769383
2004-07-13 16:03:49 51°29.753 3°4.983 17.571241 4.386734 33.456791 0.836802
2004-07-13 16:04:49 51°29.631 3°4.661 17.575305 4.383992 33.454941 0.870512
2004-07-13 16:05:49 51°29.508 3°4.338 17.580416 4.383676 33.452839 0.870512
2004-07-13 16:06:49 51°29.387 3°4.012 17.56747 4.385047 33.463943 0.803093
2004-07-13 16:07:49 51°29.262 3°3.69 17.578112 4.385153 33.469635 0.836802
2004-07-13 16:08:49 51°29.137 3°3.367 17.55603 4.386207 33.482235 0.836802
2004-07-13 16:09:52 51°29.007 3°3.023 17.485713 4.3822 33.48639 0.735674
2004-07-13 16:10:54 51°28.877 3°2.687 17.459866 4.378615 33.491773 0.668255
2004-07-13 16:11:54 51°28.752 3°2.361 17.412301 4.376084 33.501994 0.634546
2004-07-13 16:12:54 51°28.626 3°2.036 17.433086 4.375662 33.509221 0.567127
2004-07-13 16:13:54 51°28.497 3°1.714 17.422254 4.380303 33.538722 0.668255
2004-07-13 16:14:53 51°28.376 3°1.395 17.40092 4.381674 33.557098 0.567127
2004-07-13 16:15:52 51°28.251 3°1.074 17.372184 4.378511 33.569222 0.567127
2004-07-13 16:16:54 51°28.118 3°0.74 17.379327 4.379354 33.578271 0.870512
2004-07-13 16:17:53 51°27.993 3°0.425 17.374327 4.384311 33.6105 0.735674
2004-07-13 16:18:54 51°27.863 3°0.101 17.368444 4.384101 33.618372 0.701965
2004-07-13 16:19:54 51°27.72 2°59.798 17.351759 4.383046 33.617798 0.634546
2004-07-13 16:20:54 51°27.574 2°59.498 17.331748 4.380515 33.613636 0.600836
2004-07-13 16:21:54 51°27.403 2°59.231 17.354407 4.379144 33.603685 0.567127
2004-07-13 16:22:54 51°27.205 2°59.022 17.352389 4.379882 33.597914 0.634546
2004-07-13 16:23:57 51°26.988 2°58.82 17.358358 4.378722 33.590985 0.735674
2004-07-13 16:24:57 51°26.773 2°58.674 17.341628 4.377456 33.587991 0.735674
2004-07-13 16:25:57 51°26.546 2°58.556 17.330571 4.377035 33.584976 0.701965
2004-07-13 16:26:56 51°26.323 2°58.457 17.364157 4.375453 33.578054 0.735674
2004-07-13 16:28:03 51°26.073 2°58.316 17.434514 4.382307 33.564328 0.870512
2004-07-13 16:29:03 51°25.858 2°58.169 17.461713 4.379248 33.505606 1.173896
2004-07-13 16:30:02 51°25.647 2°58.017 17.446226 4.379142 33.471052 1.207606
2004-07-13 16:31:03 51°25.431 2°57.858 17.405582 4.363955 33.398768 0.97164
2004-07-13 16:32:01 51°25.222 2°57.713 17.42746 4.35594 33.354154 0.836802
2004-07-13 16:33:01 51°25.008 2°57.557 17.412679 4.353936 33.323813 0.803093
2004-07-13 16:34:07 51°24.775 2°57.384 17.402432 4.346026 33.271681 0.735674
2004-07-13 16:35:05 51°24.568 2°57.235 17.41205 4.341597 33.251711 0.769383
2004-07-13 16:36:07 51°24.346 2°57.075 17.39025 4.347819 33.26848 0.769383
2004-07-13 16:37:07 51°24.131 2°56.919 17.389872 4.34223 33.250548 0.769383
2004-07-13 16:38:06 51°23.916 2°56.765 17.409068 4.346237 33.260327 0.769383
2004-07-13 16:39:07 51°23.695 2°56.613 17.421582 4.343917 33.242269 0.701965
2004-07-13 16:40:07 51°23.475 2°56.457 17.443413 4.344022 33.227641 0.668255
2004-07-13 16:41:07 51°23.26 2°56.298 17.476819 4.343494 33.19987 0.701965
2004-07-13 16:42:07 51°23.043 2°56.144 17.465532 4.338643 33.15306 0.735674
2004-07-13 16:43:06 51°22.831 2°55.991 17.461923 4.335268 33.117695 0.836802
2004-07-13 16:44:04 51°22.621 2°55.839 17.412511 4.3243 33.062021 0.701965
2004-07-13 16:45:07 51°22.393 2°55.671 17.481434 4.321347 33.033226 0.735674
2004-07-13 16:46:07 51°22.178 2°55.515 17.489866 4.32451 33.014006 0.870512
2004-07-13 16:47:07 51°21.962 2°55.362 17.453865 4.321663 32.98202 0.904221
2004-07-13 16:48:07 51°21.748 2°55.203 17.447233 4.313648 32.936103 0.870512
2004-07-13 16:49:13 51°21.512 2°55.026 17.433674 4.302154 32.878743 0.735674
2004-07-13 16:50:13 51°21.294 2°54.869 17.462175 4.30363 32.86596 0.701965
2004-07-13 16:51:13 51°21.076 2°54.707 17.545552 4.30732 32.862658 0.803093
2004-07-13 16:52:12 51°20.861 2°54.554 17.524549 4.311222 32.871765 0.836802
2004-07-13 16:53:12 51°20.644 2°54.396 17.497794 4.310905 32.877315 0.836802
2004-07-13 16:54:21 51°20.394 2°54.214 17.509957 4.305 32.857017 0.97164
2004-07-13 16:55:21 51°20.175 2°54.055 17.537545 4.309851 32.874808 1.072768
2004-07-13 16:56:21 51°19.957 2°53.893 17.661349 4.321345 32.900885 1.241315
2004-07-13 16:57:20 51°19.744 2°53.739 17.581757 4.33516 32.946038 1.477281
2004-07-13 16:58:21 51°19.524 2°53.574 17.559759 4.32356 32.930918 1.443571
2004-07-13 16:59:22 51°19.303 2°53.413 17.490244 4.322928 32.967991 1.106477
2004-07-13 17:00:21 51°19.09 2°53.254 17.433254 4.319132 32.96516 1.173896
2004-07-13 17:01:21 51°18.871 2°53.104 17.281613 4.310907 32.977215 1.207606
2004-07-13 17:02:21 51°18.651 2°52.958 17.316653 4.309432 33.025188 1.241315
2004-07-13 17:03:21 51°18.427 2°52.813 17.399366 4.308693 32.988543 1.241315
2004-07-13 17:04:21 51°18.203 2°52.673 17.424395 4.314387 32.988579 1.173896
2004-07-13 17:05:20 51°17.978 2°52.557 17.468679 4.323984 33.056942 1.140187
2004-07-13 17:06:21 51°17.74 2°52.489 17.435731 4.33337 33.110396 1.140187
2004-07-13 17:07:21 51°17.504 2°52.454 17.401298 4.355096 33.339735 1.106477
2004-07-13 17:08:20 51°17.276 2°52.498 17.437746 4.363323 33.402356 1.072768
2004-07-13 17:09:20 51°17.051 2°52.589 17.449752 4.373447 33.465588 1.072768
2004-07-13 17:10:21 51°16.822 2°52.69 17.454075 4.387264 33.585667 1.072768
2004-07-13 17:11:21 51°16.598 2°52.805 17.435941 4.404772 33.722915 1.005349
2004-07-13 17:12:21 51°16.375 2°52.914 17.409782 4.429242 33.975323 0.769383
2004-07-13 17:13:20 51°16.157 2°53.015 17.499472 4.366486 33.397629 1.072768
2004-07-13 17:14:21 51°15.931 2°53.121 17.581212 4.340224 33.114874 1.207606
2004-07-13 17:15:22 51°15.712 2°53.25 17.687079 4.350769 33.132446 1.241315
2004-07-13 17:16:20 51°15.504 2°53.371 17.662312 4.377135 33.290422 1.308734
2004-07-13 17:17:22 51°15.297 2°53.546 17.500562 4.375555 33.376965 1.106477
2004-07-13 17:18:22 51°15.116 2°53.753 17.401592 4.368912 33.441196 1.106477
2004-07-13 17:19:22 51°14.945 2°53.969 17.414107 4.367542 33.461331 1.207606
2004-07-13 17:20:20 51°14.789 2°54.198 17.455502 4.379776 33.540233 1.072768
2004-07-13 17:21:22 51°14.645 2°54.475 17.479043 4.389267 33.580509 0.836802
2004-07-13 17:22:22 51°14.508 2°54.735 17.586532 4.387263 33.567579 0.600836
2004-07-13 17:23:21 51°14.39 2°54.995 17.544671 4.361738 33.224068 1.207606
2004-07-13 17:24:21 51°14.27 2°55.251 17.587663 4.317865 32.886561 2.016631
2004-07-13 17:25:20 51°14.145 2°55.4 17.506434 4.18299 31.78867 1.814375
2004-07-13 17:26:20 51°14.036 2°55.479 17.524633 4.120568 31.267236 1.679537
2004-07-13 17:27:21 51°13.924 2°55.563 17.70293 4.058992 30.672198 1.814375